Вернуться в каталог

ARIANE 1 DEB

АктивенSSO
NORAD 27596·DEBRIS·🇫🇷 France

Запущен Feb 22, 1986 с Guiana Space Centre

Loading…

Ближайшие Пролёты (ближайшие 24 часа)

TLE

СвежийSource: Space-Track

Эпоха: Sep 13, 2026, 22:29 UTC

1 27596U 86019VN  26256.93737050  .00001672  00000-0  39017-3 0  9997
2 27596  98.2699 234.7418 0038736  45.1854  15.5361 14.55587878627067

Отслеживайте ARIANE 1 DEB в реальном времени с AllMySat

Download on the App Store